ORBCOMM FM02 [-]

Last updated on Fri Dec 29 2023 00:02:53 GMT+0000 (Coordinated Universal Time)

1 23546U 95017B 23362.15718826 .00006642 00000+0 94160-3 0 9996 2 23546 69.9708 338.6701 0005652 13.8454 346.2848 14.77413789532817
UTC large
Height (km)
Speed (km/s)
/
Latitude / Longitude
Inclination (degrees)
Orbital Period (minutes)
Azimuth
Elevation
Range (km)
Doppler Factor

Next 0 passes for location: London (51.5072 / 0.1276)

Sorry there are no passes over London.